CAPE
1 0 0 0 0 7 0 0 4 0 0 0 0 0 0 0 0 0 0 19 19 6 3 7 4 6 2 2 1 0 0 2 4 4 2 1 0 0 0 0 0 0 0
17 18 27 1 7 1 3 10 1 0 0 0 0 0 0 0 0 0 0 0 6 10 10 4 0 2 3 2 0 0 1 1 2 1 0 0 0 0 0 0 0 0 0
37 61 29 20 4 20 23 19 5 6 6 0 0 0 0 0 0 0 0 0 0 0 0 8 4 1 1 1 0 0 1 0 0 0 1 0 0 0 0 0 0 0 0
14 16 9 17 11 30 11 6 2 12 4 0 0 0 0 0 0 0 0 0 0 0 0 0 0 0 2 4 3 2 1 2 1 1 2 1 1 1 1 0 0 0 0
3 0 19 6 17 15 2 13 6 19 12 2 0 0 0 0 0 0 0 0 0 0 0 0 0 0 0 0 1 3 6 5 5 3 2 3 3 4 2 2 2 1 0
21 30 14 29 8 5 0 10 15 22 22 5 0 0 0 0 0 0 0 0 0 0 0 0 0 0 0 0 0 0 0 3 5 8 8 5 6 5 4 4 3 4 6
73 31 1 54 0 0 0 7 16 30 5 21 7 3 0 0 0 0 0 0 0 0 0 0 0 0 0 0 0 0 0 0 3 6 10 12 9 8 5 3 4 4 4
62 60 6 15 7 0 2 7 2 0 1 7 1 0 0 0 0 0 0 0 0 0 0 0 0 0 0 0 0 0 0 0 0 0 3 20 18 15 4 3 6 6 7
91 29 21 3 6 0 1 11 4 4 1 4 0 0 1 0 0 0 0 0 0 0 0 0 0 0 0 0 0 0 0 0 0 0 0 8 17 15 10 10 5 9 9
125 54 86 0 11 0 2 12 5 0 5 2 4 0 0 0 0 0 0 0 0 0 0 0 0 0 0 0 0 0 0 0 0 0 0 0 0 13 24 21 25 29 11
88 77 134 38 0 2 0 0 0 0 1 1 0 0 0 0 0 0 0 0 0 0 0 0 0 0 0 0 0 0 0 0 0 0 0 0 0 0 6 22 30 34 33
116 97 170 101 0 0 0 0 0 0 0 0 0 5 1 0 0 0 0 0 0 0 0 0 0 0 0 0 0 0 0 0 0 0 0 0 0 0 0 0 8 22 36
312 263 210 173 27 0 0 3 0 0 0 0 0 0 7 5 7 10 7 5 0 0 0 0 0 0 0 0 0 0 0 0 0 0 0 0 0 0 0 0 0 2 11
259 357 276 194 107 2 0 12 21 0 4 1 0 15 18 9 23 7 0 0 0 0 0 0 0 0 0 0 0 0 0 0 0 0 0 0 0 0 0 0 0 0 0
424 310 251 220 185 110 52 30 42 28 39 65 87 71 64 54 67 16 0 0 0 1 0 0 13 0 0 0 0 0 0 0 0 0 0 0 0 0 0 0 0 0 0
436 354 281 185 133 110 129 122 82 59 44 85 132 134 115 94 83 53 31 40 32 11 1 0 3 8 41 37 3 0 0 0 0 0 0 0 0 0 0 0 0 0 0
310 178 20 5 6 4 37 31 60 18 53 17 79 72 51 66 89 87 90 67 40 29 11 1 0 0 9 61 67 57 32 0 0 0 0 0 0 0 0 0 0 0 0
129 38 1 6 4 4 11 0 1 0 8 44 60 53 66 79 85 76 87 97 75 57 44 10 6 0 2 61 96 79 58 72 51 37 1 0 0 0 0 0 0 0 0
0 0 54 13 20 4 6 0 1 16 23 15 12 19 16 23 36 71 85 71 90 92 61 82 45 78 27 11 7 9 15 8 9 27 19 0 0 0 0 0 0 0 0
0 0 0 0 0 0 0 0 9 20 43 27 26 35 3 13 17 80 121 112 92 74 110 65 28 22 16 12 8 30 5 1 7 9 15 1 0 0 0 0 0 0 0
0 0 0 0 0 0 0 0 0 0 1 32 39 32 17 23 30 18 30 85 85 75 92 74 63 67 33 59 13 15 23 25 28 34 34 20 7 6 0 0 0 0 0
0 0 0 1 0 0 0 0 0 0 0 0 0 11 30 4 0 0 0 1 1 1 1 3 3 13 11 8 7 5 2 1 0 27 0 1 37 26 54 44 50 0 0
4 4 1 0 0 0 0 0 0 0 0 0 0 1 1 0 0 0 0 0 0 0 1 2 4 5 5 0 1 1 1 3 1 2 11 2 2 5 17 30 33 1 0
0 1 0 0 0 0 0 0 0 0 0 0 0 0 0 0 0 0 0 0 0 0 0 0 0 0 0 0 1 7 9 15 7 7 17 3 3 21 0 0 0 0 0
1 0 0 0 0 0 0 0 0 0 0 0 0 0 0 0 0 0 0 0 0 0 0 0 0 0 0 0 0 0 0 0 0 0 0 9 2 0 1 0 1 0 0
0 0 0 0 0 0 0 0 0 0 0 0 0 0 0 0 0 0 0 0 0 0 0 0 0 0 0 0 0 0 1 8 1 0 1 7 10 15 3 0 2 2 16
CIN
-7 -24 -1 -0 -0 -16 -0 -0 -16 -0 -0 -0 -0 -0 -0 -0 -0 -0 -0 -7 -3 -0 -0 -0 -0 -0 -0 -0 -0 -0 -0 -0 -0 -0 -0 -0 -0 -0 -0 -0 -0 -0 -0
-45 -37 -17 -18 -13 -24 -23 -21 -25 -0 -0 -0 -0 -0 -0 -0 -0 -0 -0 -0 -6 -1 -0 -0 -0 -0 -0 -0 -0 -0 -0 -0 -0 -0 -0 -0 -0 -0 -0 -0 -0 -0 -0
-24 -151 -25 -34 -25 -11 -21 -17 -22 -11 -5 -0 -0 -0 -0 -0 -0 -0 -0 -0 -0 -0 -0 -0 -0 -0 -0 -0 -0 -0 -0 -0 -0 -0 -0 -0 -0 -0 -0 -0 -0 -0 -0
-16 -20 -17 -14 -19 -20 -31 -21 -18 -11 -9 -0 -0 -0 -0 -0 -0 -0 -0 -0 -0 -0 -0 -0 -0 -0 -0 -0 -0 -0 -0 -0 -0 -0 -0 -0 -0 -0 -0 -0 -0 -0 -0
-9 -0 -15 -22 -21 -27 -35 -19 -18 -10 -12 -11 -5 -0 -0 -0 -0 -0 -0 -0 -0 -0 -0 -0 -0 -0 -0 -0 -0 -0 -0 -0 -0 -0 -0 -0 -0 -0 -0 -0 -0 -0 -0
-50 -23 -15 -27 -24 -17 -2 -15 -11 -10 -12 -16 -0 -0 -0 -2 -0 -0 -0 -0 -0 -0 -0 -0 -0 -0 -0 -0 -0 -0 -0 -0 -0 -0 -0 -0 -0 -0 -0 -0 -0 -0 -0
-37 -38 -5 -46 -6 -0 -0 -23 -18 -9 -16 -16 -10 -13 -0 -0 -0 -0 -0 -0 -0 -0 -0 -0 -0 -0 -0 -0 -0 -0 -0 -0 -0 -0 -0 -0 -0 -0 -0 -0 -0 -0 -0
-51 -40 -9 -15 -20 -0 -19 -26 -10 -1 -8 -19 -8 -0 -0 -0 -0 -0 -0 -0 -0 -0 -0 -0 -0 -0 -0 -0 -0 -0 -0 -0 -0 -0 -0 -0 -0 -0 -0 -0 -0 -0 -0
-63 -77 -85 -6 -16 -0 -5 -15 -16 -12 -2 -8 -0 -0 -0 -0 -0 -0 -0 -0 -0 -0 -0 -0 -0 -0 -0 -0 -0 -0 -0 -0 -0 -0 -0 -0 -0 -0 -0 -0 -0 -0 -0
-20 -75 -53 -0 -15 -0 -5 -22 -15 -0 -14 -9 -23 -0 -0 -0 -0 -0 -0 -0 -0 -0 -0 -0 -0 -0 -0 -0 -0 -0 -0 -0 -0 -0 -0 -0 -0 -0 -0 -0 -0 -0 -0
-52 -45 -45 -55 -0 -18 -0 -0 -0 -0 -5 -8 -0 -1 -0 -0 -0 -0 -0 -0 -0 -0 -0 -0 -0 -0 -0 -0 -0 -0 -0 -0 -0 -0 -0 -0 -0 -0 -0 -0 -0 -0 -0
-62 -80 -23 -10 -5 -0 -0 -0 -0 -0 -0 -0 -0 -10 -8 -0 -0 -0 -0 -0 -0 -0 -0 -0 -0 -0 -0 -0 -0 -0 -0 -0 -0 -0 -0 -0 -0 -0 -0 -0 -0 -0 -0
-4 -13 -11 -7 -37 -0 -0 -5 -0 -0 -0 -0 -0 -0 -12 -10 -12 -12 -13 -11 -5 -0 -0 -0 -0 -0 -0 -0 -0 -0 -0 -0 -0 -0 -0 -0 -0 -0 -0 -0 -0 -0 -0
-47 -8 -31 -18 -67 -54 -2 -24 -11 -0 -8 -4 -0 -14 -14 -21 -10 -11 -0 -1 -0 -0 -0 -0 -0 -0 -0 -0 -0 -0 -0 -0 -0 -0 -0 -0 -0 -0 -0 -0 -0 -0 -0
-10 -27 -34 -29 -14 -22 -16 -30 -14 -15 -6 -9 -15 -16 -8 -12 -18 -14 -2 -0 -1 -4 -0 -0 -36 -0 -0 -0 -0 -0 -0 -0 -0 -0 -0 -0 -0 -0 -0 -0 -0 -0 -0
-7 -14 -20 -17 -19 -11 -27 -17 -21 -24 -20 -10 -12 -6 -10 -12 -23 -24 -28 -11 -10 -8 -2 -0 -58 -48 -31 -33 -16 -0 -0 -0 -0 -0 -0 -0 -0 -0 -0 -0 -0 -0 -0
-10 -7 -76 -30 -19 -18 -44 -21 -19 -42 -0 -4 -20 -2 -14 -6 -2 -9 -25 -26 -17 -13 -7 -127 -0 -0 -14 -17 -19 -43 -46 -0 -0 -0 -0 -0 -0 -0 -0 -0 -0 -0 -0
-17 -73 -5 -124 -128 -137 -62 -0 -47 -0 -13 -1 -4 -18 -0 -0 -0 -2 -1 -15 -18 -15 -7 -19 -14 -0 -17 -21 -26 -21 -21 -16 -27 -22 -8 -0 -0 -0 -0 -0 -0 -0 -0
-0 -0 -63 -6 -56 -1 -139 -0 -0 -23 -27 -18 -25 -32 -34 -17 -0 -1 -1 -0 -1 -1 -18 -0 -0 -13 -17 -28 -42 -39 -34 -39 -34 -14 -17 -0 -0 -0 -0 -0 -0 -0 -0
-0 -0 -0 -0 -10 -0 -0 -0 -14 -28 -16 -4 -10 -25 -7 -9 -2 -1 -1 -0 -0 -1 -0 -4 -7 -16 -34 -52 -27 -24 -18 -15 -17 -9 -6 -3 -0 -0 -0 -0 -0 -0 -0
-0 -0 -0 -0 -0 -0 -0 -0 -0 -0 -17 -6 -6 -19 -22 -19 -11 -13 -8 -0 -0 -0 -0 -2 -5 -0 -1 -2 -7 -18 -7 -6 -4 -5 -3 -8 -9 -21 -0 -0 -0 -0 -0
-0 -0 -0 -0 -0 -0 -0 -0 -0 -0 -0 -0 -0 -14 -25 -6 -0 -0 -0 -0 -0 -0 -0 -16 -2 -3 -9 -15 -0 -0 -0 -0 -0 -4 -0 -1 -5 -3 -8 -17 -13 -0 -0
-11 -7 -7 -0 -0 -0 -0 -0 -0 -0 -0 -0 -0 -0 -14 -0 -0 -0 -0 -0 -0 -0 -0 -0 -0 -0 -0 -0 -0 -0 -0 -0 -0 -0 -0 -0 -2 -1 -59 -7 -14 -8 -0
-0 -0 -0 -0 -0 -0 -0 -0 -0 -0 -0 -0 -0 -0 -0 -0 -0 -0 -0 -0 -0 -0 -0 -0 -0 -0 -0 -0 -0 -0 -0 -0 -1 -1 -4 -0 -0 -0 -0 -0 -0 -0 -0
-0 -0 -0 -0 -0 -0 -0 -0 -0 -0 -0 -0 -0 -0 -0 -0 -0 -0 -0 -0 -0 -0 -0 -0 -0 -0 -0 -0 -0 -0 -0 -0 -0 -0 -0 -0 -0 -0 -1 -0 -3 -0 -0
-0 -0 -0 -0 -0 -0 -0 -0 -0 -0 -0 -0 -0 -0 -0 -0 -0 -0 -0 -0 -0 -0 -0 -0 -0 -0 -0 -0 -0 -0 -0 -0 -0 -1 -2 -0 -1 -1 -1 -0 -7 -5 -2
Wind_Speed
8 7 7 7 7 7 7 7 5 3 2 2 4 0 4 6 9 7 5 9 7 8 9 9 6 8 7 7 6 4 4 5 3 4 3 3 4 3 2 2 3 3 4
9 8 6 8 5 9 6 5 5 4 4 4 2 1 2 2 4 10 7 5 7 5 7 8 8 7 8 8 7 8 7 6 6 6 5 5 4 4 3 2 1 0 1
4 3 5 6 4 5 6 5 4 4 4 4 5 2 2 2 4 5 9 7 6 10 6 7 9 9 10 9 8 9 9 9 9 8 8 8 7 7 6 5 5 4 4
4 1 3 3 4 3 4 5 4 4 5 4 4 4 4 4 3 2 3 8 8 7 10 12 12 11 12 10 12 11 11 11 11 11 11 10 10 10 10 9 8 8 8
8 4 3 4 4 3 4 4 4 4 3 4 5 4 4 5 5 4 6 4 8 8 7 13 14 14 13 14 14 14 14 14 14 13 13 13 13 13 13 12 12 12 11
8 6 4 6 5 4 4 3 5 4 3 4 4 5 4 3 4 5 6 4 5 5 6 10 8 8 13 15 18 18 17 17 17 17 16 16 16 16 16 15 15 15 14
6 6 4 5 5 4 5 6 3 4 4 4 2 2 2 3 4 3 4 5 6 6 7 8 7 7 9 21 20 20 20 20 20 19 19 19 18 18 18 18 18 18 17
9 7 5 4 6 4 5 5 4 3 3 3 3 2 3 3 5 6 4 4 7 5 6 8 8 9 5 8 12 21 23 22 22 21 21 20 19 19 21 21 20 20 20
11 9 9 5 6 5 4 5 5 5 4 3 5 4 3 4 3 4 7 5 5 5 5 6 10 9 7 6 12 16 22 20 22 23 23 21 21 23 23 23 23 22 22
11 12 10 9 6 7 5 6 5 4 4 4 3 5 3 2 2 1 3 6 6 6 6 5 6 7 8 6 9 11 18 21 22 23 24 23 23 22 22 24 23 23 24
9 10 10 10 7 5 8 7 6 7 4 4 4 3 4 4 4 3 3 3 3 4 6 7 7 5 6 7 6 8 14 19 23 25 25 24 23 23 23 23 24 25 25
9 11 10 10 10 8 8 7 9 8 9 5 5 5 4 4 4 3 4 6 5 6 9 7 6 7 7 6 11 16 17 18 21 24 25 25 25 26 26 26 26 26 25
5 9 13 13 10 12 10 8 8 8 9 8 7 6 5 7 5 6 6 5 4 3 3 6 7 6 8 8 9 13 17 18 18 21 23 23 25 26 27 27 27 27 27
9 12 12 11 12 12 12 10 7 9 9 9 10 8 5 5 3 3 3 2 4 4 5 6 5 6 6 7 8 13 10 12 16 17 18 22 23 25 25 26 27 28 29
9 12 11 12 11 13 11 8 8 8 9 9 9 10 8 6 4 4 4 5 6 8 8 5 4 7 8 7 9 10 11 13 16 16 18 18 21 23 23 25 26 27 29
8 6 8 8 10 7 8 8 7 7 9 8 5 8 9 8 7 6 5 6 5 7 11 4 6 6 5 4 8 11 11 12 14 17 16 17 20 22 23 24 26 27 28
6 6 6 5 4 6 3 4 4 2 5 4 7 8 9 11 7 7 7 6 7 7 9 10 8 7 5 6 7 5 6 6 6 16 18 19 20 21 23 25 26 26 28
6 7 8 8 10 8 7 9 10 7 8 7 8 7 10 7 10 9 8 8 7 7 7 13 11 6 7 6 5 7 7 8 8 10 14 18 21 21 22 24 25 25 26
4 4 5 6 5 5 6 6 7 7 6 10 9 8 11 8 9 7 7 7 5 6 9 12 7 3 4 4 8 10 9 8 8 13 16 17 18 19 20 23 25 26 26
4 5 4 3 4 5 6 5 7 6 6 7 8 7 7 8 10 8 7 9 8 8 6 7 6 7 7 7 5 8 8 8 9 10 11 14 17 16 18 22 25 25 26
5 6 6 5 7 8 6 6 5 4 2 6 6 5 7 8 8 8 7 8 6 6 5 6 7 7 6 6 5 6 7 8 10 8 12 10 12 11 12 15 19 21 24
6 5 6 7 10 8 8 9 6 3 3 2 3 4 5 4 5 8 6 5 6 4 8 6 6 7 7 7 6 8 8 8 10 0 7 12 10 12 11 11 17 16 19
3 5 6 13 12 9 10 7 6 3 4 3 4 3 4 8 10 8 9 9 7 4 4 3 4 4 7 6 6 7 8 9 9 8 9 13 7 13 11 12 17 19 17
9 11 12 12 10 8 10 12 10 5 5 6 9 8 9 9 8 7 7 6 7 6 7 3 1 4 4 5 5 6 7 10 10 8 7 11 10 11 12 13 20 23 19
9 10 10 10 9 9 12 11 8 5 11 11 10 9 8 8 8 11 4 4 4 5 7 8 7 6 6 4 7 6 7 9 10 10 6 8 8 15 13 14 11 20 19
9 8 9 9 9 7 13 14 13 5 8 7 7 9 11 7 5 8 6 5 5 6 7 5 5 7 10 10 12 9 8 9 10 8 6 11 11 11 11 10 11 13 13
Wind_Direction
148 169 167 162 176 166 180 196 202 118 83 81 90 153 325 48 110 120 119 139 143 158 166 165 167 149 166 161 154 160 160 168 160 167 143 139 144 134 113 78 74 55 55
155 177 168 179 186 157 176 205 132 145 174 145 151 183 82 64 110 131 137 148 168 181 179 188 182 192 177 182 175 185 189 194 190 198 194 197 196 198 198 201 207 280 0
154 158 151 162 183 164 167 122 143 158 161 165 156 157 243 189 130 145 154 157 171 185 201 191 203 201 206 204 209 205 206 210 213 211 207 216 218 220 222 235 240 247 254
113 306 144 186 174 134 137 135 178 179 156 190 157 176 211 182 168 233 171 163 173 182 198 194 198 213 210 223 219 223 226 227 227 227 229 226 230 229 230 237 242 238 250
154 195 180 191 174 150 154 161 187 178 169 187 165 189 202 173 164 192 236 176 182 178 187 202 195 207 209 217 232 229 228 231 231 235 240 234 239 238 241 243 245 247 250
161 178 226 167 159 167 175 183 169 203 195 179 209 168 177 236 175 200 196 190 214 206 173 174 196 210 213 216 222 229 231 235 234 235 235 240 238 239 241 241 248 252 250
170 170 221 166 159 193 187 181 170 192 224 186 149 134 173 212 287 245 201 198 213 199 191 172 191 210 216 216 218 226 231 234 235 238 238 237 242 240 240 244 244 245 250
175 168 209 191 172 189 186 175 177 201 209 166 158 171 210 245 217 218 235 225 218 207 198 201 202 210 221 204 216 223 231 234 236 239 242 236 231 235 237 240 244 246 246
170 186 184 217 180 189 197 188 180 199 184 202 169 187 216 233 150 191 214 215 232 213 230 222 215 215 219 196 207 222 227 233 235 237 241 243 239 229 232 234 238 244 249
178 188 185 198 196 191 218 185 178 194 226 194 164 224 238 269 315 3 212 214 217 224 218 223 237 215 208 212 220 207 212 223 231 236 240 242 245 248 238 237 238 240 248
198 199 191 193 205 192 206 179 182 195 203 211 191 168 234 234 222 189 285 230 215 228 229 224 220 227 219 211 220 222 221 209 220 229 236 242 246 248 250 249 244 242 243
198 194 207 203 200 204 208 214 187 192 206 205 223 208 196 187 210 209 237 252 219 226 223 221 206 219 227 222 217 225 223 217 216 223 227 232 238 242 245 247 248 248 247
210 211 201 204 199 201 202 209 209 192 198 212 217 222 222 212 204 207 226 245 248 277 246 217 215 210 216 227 233 221 228 227 220 222 226 229 233 238 241 244 247 248 249
194 225 207 204 208 197 205 208 211 204 207 209 217 224 237 238 234 202 213 263 284 257 250 242 219 211 220 222 225 230 239 221 226 228 229 231 234 239 242 243 245 247 249
206 207 210 204 207 208 200 204 223 216 215 220 215 220 225 234 241 226 214 225 235 268 265 264 257 218 227 230 230 233 234 233 228 227 228 232 237 241 242 243 245 246 248
208 193 202 210 211 220 223 221 232 236 232 232 225 230 233 244 239 236 239 246 238 250 271 242 262 260 254 239 232 233 233 230 234 233 233 235 240 241 241 243 243 244 246
211 172 145 141 154 162 195 227 255 251 251 213 264 255 254 252 265 258 240 239 241 245 256 267 257 257 270 270 280 286 267 250 239 230 230 233 238 240 239 240 242 244 245
154 168 174 184 169 176 191 203 222 215 214 202 215 220 251 237 241 260 259 248 244 257 264 266 271 275 269 282 284 293 292 283 269 260 244 241 244 246 242 243 243 242 243
122 106 161 202 210 196 208 223 222 227 202 229 220 233 244 230 241 245 263 254 264 270 279 260 265 247 261 268 281 276 279 288 282 277 264 259 252 247 243 243 244 241 241
139 141 126 130 121 108 44 339 234 224 226 225 221 213 227 242 244 249 265 276 277 274 278 272 272 276 267 257 248 272 271 265 274 275 271 264 264 259 247 246 243 240 241
154 157 153 138 94 74 37 9 4 19 34 256 247 227 233 242 250 250 262 271 277 271 271 277 282 289 298 287 270 260 269 280 286 281 278 276 282 276 274 253 251 246 244
179 160 145 120 91 71 18 24 359 336 309 293 308 310 262 313 350 18 339 290 258 275 285 286 294 305 332 353 3 348 338 320 309 310 333 303 306 289 277 273 272 245 239
101 160 150 100 81 52 10 3 359 276 266 235 260 274 78 52 28 2 351 334 325 357 238 7 4 1 345 333 314 319 319 305 296 311 306 293 311 289 294 290 282 275 261
68 80 88 91 84 47 13 2 339 250 241 67 66 62 74 61 27 12 345 1 14 15 44 19 314 295 293 330 342 317 298 302 307 318 339 293 315 305 329 313 319 308 293
80 74 77 88 82 48 7 353 336 293 92 83 72 63 75 64 13 352 336 20 11 37 356 323 271 284 333 29 10 357 1 344 330 334 316 346 335 318 314 303 307 319 313
89 91 85 70 76 58 19 7 3 50 90 104 111 93 65 73 26 19 39 25 26 5 328 357 23 30 26 9 14 13 355 343 332 325 19 332 324 333 311 303 312 314 305